CW4828 Weather Reports


time (UTC)temp
C
wind
direction
speed
KPH
gust
KPH
rain 1hr
cm
rain 24hr
cm
rain mn
cm
humidity
%
barometer
mb
20260504173104 28 82 8.0 17.7 0.00 0.00 0.00 41 1017.1
20260504171600 28 108 4.8 14.5 0.00 0.00 0.00 41 1017.1
20260504170105 28 112 6.4 14.5 0.00 0.00 0.00 39 1017.4
20260504090105 18 0 0.0 4.8 0.00 0.00 0.00 79 1016.5
20260504081555 18 68 1.6 6.4 0.00 0.00 0.00 80 1016.6
20260504044559 20 0 1.6 6.4 0.00 0.00 0.00 72 1018.0
20260504043055 20 52 3.2 6.4 0.00 0.00 0.00 72 1018.0
20260504041554 20 66 3.2 6.4 0.00 0.00 0.00 72 1017.9
20260504040103 20 72 0.0 4.8 0.00 0.00 0.00 72 1017.9
20260504034559 20 70 1.6 4.8 0.00 0.00 0.00 71 1017.9
20260504033126 20 71 3.2 6.4 0.00 0.00 0.00 71 1018.1
20260504031557 20 84 1.6 8.0 0.00 0.00 0.00 70 1018.0
20260504030116 20 98 3.2 8.0 0.00 0.00 0.00 70 1018.0
20260504024556 20 48 4.8 11.3 0.00 0.05 0.00 69 1017.9
20260504023101 20 74 4.8 14.5 0.00 0.05 0.00 69 1018.0
20260504021557 20 110 3.2 9.7 0.00 0.05 0.00 69 1017.9
20260504014557 20 65 4.8 9.7 0.00 0.05 0.00 69 1017.6
20260504013109 20 98 4.8 9.7 0.00 0.05 0.00 69 1017.3
20260504011559 21 68 4.8 11.3 0.00 0.05 0.00 68 1017.3
20260504010113 21 76 4.8 12.9 0.00 0.05 0.00 67 1017.2
20260504004627 21 82 3.2 9.7 0.00 0.05 0.00 66 1017.1
20260504003056 21 67 4.8 14.5 0.00 0.05 0.00 65 1017.1
20260504001612 22 136 8.0 17.7 0.00 0.05 0.00 63 1016.9
20260504000056 22 84 3.2 12.9 0.00 0.05 0.00 60 1016.5
20260503234557 22 70 4.8 12.9 0.00 0.05 0.00 59 1016.4
20260503233054 23 76 3.2 9.7 0.00 0.05 0.00 58 1016.5
20260503231558 23 86 4.8 12.9 0.00 0.05 0.00 57 1016.3
20260503230100 24 105 4.8 9.7 0.00 0.05 0.00 55 1016.4
20260503224556 24 120 4.8 11.3 0.00 0.05 0.00 54 1016.4
20260503223059 25 100 6.4 12.9 0.00 0.05 0.00 52 1016.3
20260503221554 25 82 3.2 14.5 0.00 0.05 0.00 53 1016.3
20260503220056 25 1 4.8 17.7 0.00 0.05 0.00 52 1016.2
20260503214552 26 359 4.8 11.3 0.00 0.05 0.00 52 1016.1
20260503213106 26 54 6.4 14.5 0.00 0.05 0.00 53 1016.0
20260503211555 26 351 3.2 12.9 0.00 0.05 0.00 53 1016.0
20260503210101 25 360 4.8 19.3 0.00 0.05 0.00 53 1016.1
20260503204600 26 0 3.2 11.3 0.00 0.18 0.00 51 1016.4
20260503203103 26 73 3.2 11.3 0.00 0.18 0.00 53 1016.4
20260503201553 26 60 3.2 14.5 0.00 0.18 0.00 53 1016.6
20260503200058 26 360 4.8 12.9 0.00 0.18 0.00 51 1016.6
20260503194553 26 94 4.8 16.1 0.00 0.36 0.00 52 1016.6
20260503193059 27 0 4.8 19.3 0.00 0.36 0.00 51 1017.0
20260503191622 26 25 6.4 14.5 0.00 0.36 0.00 53 1017.3
20260503190056 26 47 4.8 14.5 0.00 0.36 0.00 56 1017.5
20260503184601 25 63 4.8 11.3 0.00 0.48 0.00 57 1017.7
20260503183112 26 8 6.4 14.5 0.00 0.48 0.00 58 1018.0
20260503181553 25 351 8.0 17.7 0.00 0.48 0.00 59 1017.9
20260503180100 25 32 4.8 19.3 0.00 0.48 0.00 58 1018.1
20260503174558 25 347 3.2 12.9 0.00 0.48 0.00 60 1018.3